Jacksonville, IL

4:34 AM CDT on August 28, 2016 (GMT -0500)
Jacksonville Municipal

Weather History for KIJX - April, 2013

Change the Weather History Date:

Monday, April 22, 2013

  Actual Average (KSPI) Record (KSPI)
Temperature  
Mean Temperature 54 °F 56 °F  
Max Temperature 68 °F 67 °F 89 °F (1925)
Min Temperature 40 °F 45 °F 30 °F (1959)
Degree Days  
Heating Degree Days 11 10  
Month to date heating degree days 297  
Since 1 July heating degree days 5279  
Cooling Degree Days 0 1  
Month to date cooling degree days 11  
Year to date cooling degree days 13  
Growing Degree Days 4 (Base 50)    
Moisture  
Dew Point 39 °F    
Average Humidity 55    
Maximum Humidity 78    
Minimum Humidity 34    
Precipitation  
Precipitation 0.00 in 0.12 in 1.94 in (1944)
Month to date precipitation 2.47  
Year to date precipitation 8.73  
Snow  
Snow 0.00 in 0.00 in T in (1893)
Month to date snowfall 0.3  
Since 1 July snowfall 20.9  
Snow Depth -    
Sea Level Pressure  
Sea Level Pressure 30.14 in    
Wind  
Wind Speed 9 mph (SE)    
Max Wind Speed 16 mph    
Max Gust Speed 24 mph    
Visibility 10 miles    
Events Rain    
T = Trace of Precipitation, MM = Missing Value Source: NWS Daily Summary

Daily Weather History Graph

Daily Weather History Graph

Search for Another Location

Airport or City:

Trip Planner

Search our weather history database for the weather conditions in past years. The results will help you decide how hot, cold, wet, or windy it might be!

Date:

Astronomy

Apr. 22, 2013 Rise Set
Actual Time 6:12 AM CDT 7:46 PM CDT
Civil Twilight 5:44 AM CDT 8:15 PM CDT
Nautical Twilight 5:10 AM CDT 8:49 PM CDT
Astronomical Twilight 4:33 AM CDT 9:25 PM CDT
Moon 4:35 PM CDT (4/22) 4:07 AM CDT (4/22)
Length of Visible Light 14h 30m
Length of Day
13h 33m
Waxing Gibbous, 88% of the Moon is Illuminated
Apr 22
Waxing Gibbous
Apr 25
Full
May 2
Last Quarter
May 9
New
May 17
First Quarter

Hourly Weather History & Observations

Time (CDT) Temp. Windchill Dew Point Humidity Pressure Visibility Wind Dir Wind Speed Gust Speed Precip Events Conditions
12:15 AM 46.4 °F 42.9 °F 37.4 °F 71% 30.28 in 10.0 mi SE 6.9 mph - N/A   Clear
12:35 AM 45.9 °F 42.3 °F 37.4 °F 72% 30.28 in 10.0 mi SE 6.9 mph - N/A   Clear
1:15 AM 45.5 °F 41.3 °F 36.5 °F 71% 30.27 in 10.0 mi SE 8.1 mph - N/A   Clear
1:35 AM 44.6 °F 40.2 °F 36.3 °F 73% 30.27 in 10.0 mi SE 8.1 mph - N/A   Clear
1:55 AM 46.4 °F 42.9 °F 36.0 °F 67% 30.27 in 10.0 mi SE 6.9 mph - N/A   Clear
2:15 AM 45.7 °F 41.0 °F 36.1 °F 69% 30.26 in 10.0 mi SE 9.2 mph - N/A   Clear
2:55 AM 46.0 °F 41.9 °F 35.2 °F 66% 30.26 in 10.0 mi SE 8.1 mph - N/A   Clear
3:15 AM 45.7 °F 41.5 °F 34.7 °F 65% 30.25 in 10.0 mi SE 8.1 mph - N/A   Clear
3:35 AM 45.1 °F 41.4 °F 34.5 °F 66% 30.25 in 10.0 mi SE 6.9 mph - N/A   Clear
3:55 AM 45.5 °F 40.3 °F 34.3 °F 65% 30.24 in 7.0 mi SE 10.4 mph - N/A   Clear
4:15 AM 44.6 °F 40.7 °F 34.7 °F 68% 30.25 in 10.0 mi SE 6.9 mph - N/A   Clear
4:35 AM 43.0 °F 38.2 °F 34.7 °F 73% 30.24 in 10.0 mi SE 8.1 mph - N/A   Clear
4:55 AM 42.6 °F 38.4 °F 34.3 °F 73% 30.24 in 10.0 mi SE 6.9 mph - N/A   Clear
5:15 AM 41.2 °F 36.0 °F 34.0 °F 76% 30.23 in 10.0 mi ESE 8.1 mph - N/A   Clear
5:35 AM 41.0 °F 35.8 °F 33.8 °F 76% 30.23 in 10.0 mi ESE 8.1 mph - N/A   Clear
5:55 AM 40.6 °F 36.0 °F 33.6 °F 76% 30.23 in 10.0 mi ESE 6.9 mph - N/A   Clear
6:15 AM 41.0 °F 37.1 °F 33.8 °F 76% 30.23 in 10.0 mi SE 5.8 mph - N/A   Clear
6:35 AM 41.0 °F 37.1 °F 33.8 °F 76% 30.23 in 10.0 mi SE 5.8 mph - N/A   Clear
6:55 AM 42.3 °F 38.6 °F 34.7 °F 75% 30.23 in 10.0 mi SE 5.8 mph - N/A   Clear
7:15 AM 43.9 °F 39.3 °F 35.6 °F 73% 30.23 in 10.0 mi SE 8.1 mph - N/A   Clear
7:35 AM 46.4 °F 42.4 °F 35.8 °F 67% 30.23 in 10.0 mi SE 8.1 mph - N/A   Clear
7:55 AM 48.7 °F - 36.1 °F 62% 30.23 in 10.0 mi SE 6.9 mph - N/A   Clear
8:15 AM 51.6 °F - 35.8 °F 55% 30.23 in 10.0 mi SSE 10.4 mph - N/A   Clear
8:35 AM 53.2 °F - 35.4 °F 51% 30.23 in 10.0 mi South 11.5 mph - N/A   Clear
8:55 AM 54.9 °F - 36.7 °F 50% 30.22 in 10.0 mi South 11.5 mph - N/A   Clear
9:15 AM 55.6 °F - 37.6 °F 51% 30.22 in 10.0 mi SSE 10.4 mph - N/A   Clear
9:35 AM 57.2 °F - 38.7 °F 50% 30.21 in 10.0 mi SSE 10.4 mph - N/A   Clear
9:55 AM 57.7 °F - 37.8 °F 47% 30.21 in 10.0 mi SSE 11.5 mph - N/A   Clear
10:15 AM 59.2 °F - 38.1 °F 46% 30.21 in 10.0 mi South 11.5 mph - N/A   Clear
10:35 AM 60.8 °F - 37.2 °F 42% 30.22 in 10.0 mi South 11.5 mph - N/A   Clear
10:55 AM 61.7 °F - 37.2 °F 40% 30.22 in 10.0 mi South 9.2 mph - N/A   Clear
11:15 AM 62.4 °F - 37.9 °F 40% 30.21 in 10.0 mi South 9.2 mph - N/A   Clear
11:35 AM 63.0 °F - 36.9 °F 38% 30.21 in 10.0 mi SE 10.4 mph - N/A   Clear
11:55 AM 63.9 °F - 37.4 °F 38% 30.20 in 10.0 mi SSE 6.9 mph - N/A   Clear
12:15 PM 64.8 °F - 37.8 °F 37% 30.19 in 10.0 mi South 8.1 mph - N/A   Clear
12:35 PM 65.1 °F - 36.9 °F 35% 30.18 in 10.0 mi SE 9.2 mph - N/A   Clear
12:55 PM 65.3 °F - 38.7 °F 38% 30.16 in 10.0 mi SE 9.2 mph - N/A   Clear
1:15 PM 65.8 °F - 39.9 °F 39% 30.15 in 10.0 mi SE 11.5 mph - N/A   Clear
1:35 PM 66.7 °F - 39.0 °F 36% 30.15 in 10.0 mi SE 12.7 mph 19.6 mph N/A   Clear
1:55 PM 67.1 °F - 39.7 °F 37% 30.13 in 10.0 mi SSE 10.4 mph - N/A   Clear
2:15 PM 67.3 °F - 38.7 °F 35% 30.12 in 10.0 mi SE 12.7 mph 16.1 mph N/A   Clear
2:35 PM 68.0 °F - 38.7 °F 34% 30.11 in 10.0 mi SE 12.7 mph - N/A   Clear
2:55 PM 67.8 °F - 39.6 °F 36% 30.10 in 10.0 mi SE 15.0 mph - N/A   Clear
3:15 PM 68.2 °F - 41.2 °F 37% 30.08 in 10.0 mi SE 11.5 mph 17.3 mph N/A   Clear
3:35 PM 68.0 °F - 40.1 °F 36% 30.06 in 10.0 mi SSE 11.5 mph - N/A   Clear
3:55 PM 68.0 °F - 39.7 °F 36% 30.05 in 10.0 mi SE 13.8 mph 20.7 mph N/A   Clear
4:15 PM 68.9 °F - 39.2 °F 34% 30.05 in 10.0 mi SSE 11.5 mph - N/A   Clear
4:35 PM 68.9 °F - 40.5 °F 35% 30.04 in 10.0 mi SE 13.8 mph 19.6 mph N/A   Clear
4:55 PM 68.2 °F - 39.4 °F 35% 30.04 in 10.0 mi SE 13.8 mph 24.2 mph N/A   Clear
5:15 PM 67.3 °F - 40.3 °F 37% 30.03 in 10.0 mi SE 15.0 mph 21.9 mph N/A   Clear
5:35 PM 66.2 °F - 41.0 °F 40% 30.02 in 10.0 mi SE 13.8 mph - N/A   Clear
5:55 PM 65.8 °F - 41.9 °F 42% 30.02 in 10.0 mi SE 11.5 mph - N/A   Clear
6:15 PM 65.7 °F - 42.4 °F 43% 30.02 in 10.0 mi SE 11.5 mph - N/A   Clear
6:35 PM 65.3 °F - 43.2 °F 45% 30.02 in 10.0 mi SE 9.2 mph - N/A   Clear
6:55 PM 64.8 °F - 43.2 °F 45% 30.02 in 10.0 mi SE 10.4 mph - N/A   Clear
7:15 PM 63.1 °F - 44.6 °F 51% 30.01 in 10.0 mi SE 9.2 mph - N/A   Clear
7:35 PM 61.7 °F - 44.4 °F 53% 29.99 in 10.0 mi ESE 11.5 mph - N/A   Clear
7:55 PM 61.2 °F - 44.8 °F 55% 30.01 in 10.0 mi SE 8.1 mph - N/A   Clear
8:15 PM 59.9 °F - 45.5 °F 59% 30.00 in 10.0 mi ESE 9.2 mph - N/A   Clear
8:35 PM 60.1 °F - 45.1 °F 58% 30.01 in 10.0 mi SE 9.2 mph - N/A   Clear
8:55 PM 59.0 °F - 45.9 °F 62% 30.02 in 10.0 mi SE 9.2 mph - N/A   Clear
9:15 PM 59.2 °F - 45.9 °F 61% 30.02 in 10.0 mi SE 8.1 mph - N/A   Clear
9:35 PM 59.9 °F - 46.0 °F 60% 30.02 in 10.0 mi SE 9.2 mph - N/A   Clear
9:55 PM 59.9 °F - 46.0 °F 60% 30.03 in 10.0 mi SE 6.9 mph - N/A   Scattered Clouds
10:15 PM 59.9 °F - 46.2 °F 61% 30.03 in 10.0 mi SSE 8.1 mph - N/A   Mostly Cloudy
10:35 PM 59.9 °F - 47.3 °F 63% 30.05 in 10.0 mi SSW 16.1 mph 24.2 mph N/A Rain Light Rain
10:55 PM 58.6 °F - 48.2 °F 68% 30.04 in 10.0 mi South 6.9 mph - N/A Rain Light Rain
11:15 PM 58.1 °F - 48.6 °F 71% 30.05 in 10.0 mi South 4.6 mph - N/A   Drizzle
11:35 PM 58.3 °F - 48.7 °F 71% 30.04 in 10.0 mi SE 4.6 mph - N/A Rain Light Rain
11:55 PM 56.8 °F - 50.0 °F 78% 30.03 in 10.0 mi ESE 4.6 mph - N/A   Overcast